DW6757 Weather Reports


Display with metric or nautical units.
time (UTC)temp
F
wind
direction
speed
MPH
gust
MPH
rain 1hr
in
rain 24hr
in
rain mn
in
humidity
%
barometer
mb
20260903200504 101 145 5.0 12.0 0.00 0.00 0.00 40 1010.0
20260903200004 101 177 5.0 10.0 0.00 0.00 0.00 41 1010.1
20260903195504 100 178 4.0 10.0 0.00 0.00 0.00 42 1010.0
20260903195025 100 154 4.0 9.0 0.00 0.00 0.00 42 1010.1
20260903194504 100 158 4.0 9.0 0.00 0.00 0.00 41 1010.3
20260903194005 100 153 2.0 5.0 0.00 0.00 0.00 43 1010.2
20260903193525 100 159 3.0 9.0 0.00 0.00 0.00 42 1010.2
20260903193004 99 174 4.0 10.0 0.00 0.00 0.00 43 1010.4
20260903192504 99 207 4.0 10.0 0.00 0.00 0.00 43 1010.5
20260903192004 99 261 4.0 9.0 0.00 0.00 0.00 43 1010.5
20260903191504 99 255 3.0 9.0 0.00 0.00 0.00 43 1010.5
20260903191025 99 182 4.0 10.0 0.00 0.00 0.00 44 1010.7
20260903190504 99 191 6.0 12.0 0.00 0.00 0.00 43 1010.7
20260903190004 99 178 6.0 12.0 0.00 0.00 0.00 44 1010.8
20260903185525 98 166 4.0 11.0 0.00 0.00 0.00 43 1010.9
20260903185004 98 189 5.0 12.0 0.00 0.00 0.00 45 1011.1
20260903184504 98 191 5.0 12.0 0.00 0.00 0.00 46 1011.2
20260903184004 98 198 4.0 10.0 0.00 0.00 0.00 47 1011.3
20260903183504 98 210 5.0 10.0 0.00 0.00 0.00 47 1011.5
20260903183004 98 231 5.0 13.0 0.00 0.00 0.00 45 1011.5
20260903182504 98 216 5.0 13.0 0.00 0.00 0.00 45 1011.7
20260903182025 97 190 4.0 9.0 0.00 0.00 0.00 47 1011.6
20260903181504 96 200 5.0 11.0 0.00 0.00 0.00 48 1011.8
20260903181004 96 201 7.0 12.0 0.00 0.00 0.00 46 1011.9
20260903180525 96 189 7.0 12.0 0.00 0.00 0.00 47 1011.9
20260903180025 96 202 6.0 12.0 0.00 0.00 0.00 48 1011.9
20260903175525 96 214 6.0 12.0 0.00 0.00 0.00 48 1011.9
20260903175004 96 212 6.0 12.0 0.00 0.00 0.00 49 1012.0
20260903174504 95 202 7.0 13.0 0.00 0.00 0.00 51 1012.2
20260903174027 95 170 8.0 14.0 0.00 0.00 0.00 50 1012.2
20260903173504 94 166 7.0 14.0 0.00 0.00 0.00 50 1012.2
20260903173025 94 190 6.0 12.0 0.00 0.00 0.00 50 1012.4
20260903172504 94 191 6.0 13.0 0.00 0.00 0.00 55 1012.4
20260903172004 94 188 6.0 13.0 0.00 0.00 0.00 56 1012.6
20260903171504 94 193 6.0 12.0 0.00 0.00 0.00 55 1012.8
20260903171004 93 191 7.0 14.0 0.00 0.00 0.00 56 1012.9
20260903170504 93 189 7.0 14.0 0.00 0.00 0.00 57 1013.0
20260903170004 93 191 7.0 14.0 0.00 0.00 0.00 55 1013.0
20260903165504 93 212 6.0 14.0 0.00 0.00 0.00 59 1013.1
20260903165004 93 223 5.0 12.0 0.00 0.00 0.00 59 1013.2
20260903164504 92 230 5.0 12.0 0.00 0.00 0.00 59 1013.2
20260903164004 92 219 5.0 13.0 0.00 0.00 0.00 61 1013.3
20260903163504 92 187 6.0 13.0 0.00 0.00 0.00 61 1013.3
20260903163004 91 179 6.0 11.0 0.00 0.00 0.00 62 1013.3
20260903162504 91 199 5.0 12.0 0.00 0.00 0.00 62 1013.3
20260903162004 91 219 4.0 12.0 0.00 0.00 0.00 64 1013.4
20260903161504 90 220 5.0 11.0 0.00 0.00 0.00 64 1013.4
20260903161004 90 199 6.0 13.0 0.00 0.00 0.00 65 1013.4
20260903160525 90 192 5.0 13.0 0.00 0.00 0.00 66 1013.4
20260903160025 90 214 4.0 9.0 0.00 0.00 0.00 66 1013.3
20260903155525 89 201 6.0 13.0 0.00 0.00 0.00 67 1013.3
20260903155025 89 207 6.0 13.0 0.00 0.00 0.00 67 1013.3
20260903154504 89 229 5.0 12.0 0.00 0.00 0.00 67 1013.3
20260903154004 89 216 4.0 9.0 0.00 0.00 0.00 71 1013.4
20260903153504 88 213 5.0 12.0 0.00 0.00 0.00 71 1013.4
20260903153025 88 217 5.0 12.0 0.00 0.00 0.00 71 1013.5
20260903152525 87 219 4.0 7.0 0.00 0.00 0.00 73 1013.4
20260903152004 86 217 5.0 9.0 0.00 0.00 0.00 73 1013.4
20260903151504 87 213 5.0 11.0 0.00 0.00 0.00 72 1013.4
20260903151004 87 217 6.0 11.0 0.00 0.00 0.00 72 1013.3
20260903150525 86 217 7.0 13.0 0.00 0.00 0.00 73 1013.3
20260903150004 86 208 8.0 14.0 0.00 0.00 0.00 72 1013.3
20260903145504 86 206 7.0 14.0 0.00 0.00 0.00 73 1013.3
20260903145004 86 206 8.0 14.0 0.00 0.00 0.00 74 1013.4
20260903144504 86 207 8.0 15.0 0.00 0.00 0.00 74 1013.3
20260903144004 86 211 7.0 15.0 0.00 0.00 0.00 74 1013.4
20260903143504 85 219 7.0 13.0 0.00 0.00 0.00 75 1013.4
20260903143004 85 222 7.0 13.0 0.00 0.00 0.00 77 1013.3
20260903142525 84 225 7.0 13.0 0.00 0.00 0.00 77 1013.4
20260903142004 84 229 7.0 14.0 0.00 0.00 0.00 77 1013.3
20260903141504 84 221 6.0 14.0 0.00 0.00 0.00 77 1013.4
20260903141004 84 220 5.0 12.0 0.00 0.00 0.00 78 1013.4
20260903140504 84 224 6.0 12.0 0.00 0.00 0.00 79 1013.4
20260903140004 83 214 6.0 11.0 0.00 0.00 0.00 80 1013.5
20260903135504 83 205 6.0 11.0 0.00 0.00 0.00 81 1013.4
20260903135004 83 210 6.0 11.0 0.00 0.00 0.00 81 1013.5
20260903134504 83 220 5.0 11.0 0.00 0.00 0.00 82 1013.6
20260903134004 82 219 4.0 10.0 0.00 0.00 0.00 82 1013.5
20260903133504 82 208 5.0 9.0 0.00 0.00 0.00 83 1013.5
20260903133004 82 199 4.0 9.0 0.00 0.00 0.00 83 1013.6
20260903132504 82 199 4.0 9.0 0.00 0.00 0.00 83 1013.7
20260903132025 82 206 3.0 7.0 0.00 0.00 0.00 84 1013.6
20260903131504 82 205 4.0 7.0 0.00 0.00 0.00 84 1013.6
20260903131025 82 202 4.0 6.0 0.00 0.00 0.00 84 1013.6
20260903130504 82 201 4.0 7.0 0.00 0.00 0.00 84 1013.5
20260903130004 81 205 4.0 8.0 0.00 0.00 0.00 84 1013.5
20260903125504 81 208 4.0 8.0 0.00 0.00 0.00 84 1013.5
20260903125004 81 208 4.0 8.0 0.00 0.00 0.00 84 1013.4
20260903124504 81 208 4.0 7.0 0.00 0.00 0.00 84 1013.5
20260903124004 81 209 4.0 9.0 0.00 0.00 0.00 84 1013.3
20260903123504 81 207 5.0 9.0 0.00 0.00 0.00 85 1013.3
20260903123004 81 202 4.0 9.0 0.00 0.00 0.00 84 1013.2
20260903122525 81 200 4.0 7.0 0.00 0.00 0.00 84 1013.2
20260903122004 81 198 5.0 9.0 0.00 0.00 0.00 84 1013.2
20260903121504 81 197 5.0 9.0 0.00 0.00 0.00 84 1013.2
20260903121004 81 200 5.0 10.0 0.00 0.00 0.00 84 1013.1
20260903120504 81 203 5.0 12.0 0.00 0.00 0.00 84 1013.1
20260903120004 81 201 5.0 12.0 0.00 0.00 0.00 84 1013.1
20260903115504 81 197 5.0 9.0 0.00 0.00 0.00 84 1013.1
20260903115004 81 201 5.0 9.0 0.00 0.00 0.00 84 1013.0
20260903114504 81 198 5.0 10.0 0.00 0.00 0.00 84 1012.9
20260903114003 81 198 5.0 10.0 0.00 0.00 0.00 84 1012.8
20260903113504 81 202 5.0 10.0 0.00 0.00 0.00 84 1012.7
20260903113004 81 199 5.0 9.0 0.00 0.00 0.00 84 1012.7
20260903112504 81 195 5.0 10.0 0.00 0.00 0.00 84 1012.8
20260903112025 81 193 5.0 10.0 0.00 0.00 0.00 84 1012.8
20260903111504 82 194 5.0 8.0 0.00 0.00 0.00 84 1012.9
20260903111004 82 199 6.0 11.0 0.00 0.00 0.00 84 1012.7
20260903110504 82 192 6.0 11.0 0.00 0.00 0.00 84 1012.8
20260903110004 82 190 7.0 12.0 0.00 0.00 0.00 84 1012.7
20260903105504 82 192 7.0 12.0 0.00 0.00 0.00 83 1012.7
20260903105004 82 192 7.0 12.0 0.00 0.00 0.00 83 1012.8
20260903104504 82 193 7.0 11.0 0.00 0.00 0.00 83 1012.8
20260903104004 82 192 6.0 11.0 0.00 0.00 0.00 83 1012.7
20260903103504 82 192 7.0 12.0 0.00 0.00 0.00 83 1012.8
20260903103004 82 196 7.0 12.0 0.00 0.00 0.00 83 1012.7
20260903102504 82 204 7.0 12.0 0.00 0.00 0.00 83 1012.7
20260903102004 82 204 7.0 12.0 0.00 0.00 0.00 83 1012.7
20260903101504 82 199 7.0 10.0 0.00 0.00 0.00 84 1012.8
20260903101004 82 198 6.0 11.0 0.00 0.00 0.00 84 1012.6
20260903100504 82 196 5.0 11.0 0.00 0.00 0.00 84 1012.5
20260903100004 82 188 5.0 8.0 0.00 0.00 0.00 85 1012.7
20260903095504 82 193 5.0 8.0 0.00 0.00 0.00 85 1012.9
20260903095003 82 200 4.0 9.0 0.00 0.00 0.00 85 1012.9
20260903094504 82 197 5.0 10.0 0.00 0.00 0.00 85 1012.8
20260903094003 82 195 5.0 10.0 0.00 0.00 0.00 85 1013.2
20260903093525 82 191 4.0 9.0 0.00 0.00 0.00 85 1012.8
20260903093004 82 189 4.0 10.0 0.00 0.00 0.00 85 1012.8
20260903092503 82 194 4.0 10.0 0.00 0.00 0.00 85 1012.8
20260903092004 82 193 4.0 9.0 0.00 0.00 0.00 85 1012.7
20260903091504 82 194 4.0 8.0 0.00 0.00 0.00 85 1012.7
20260903091004 82 202 4.0 7.0 0.00 0.00 0.00 85 1012.7
20260903090504 81 203 4.0 7.0 0.00 0.00 0.00 86 1012.7
20260903090004 81 201 3.0 6.0 0.00 0.00 0.00 86 1012.9
20260903085503 81 197 3.0 6.0 0.00 0.00 0.00 86 1012.9
20260903085025 81 189 3.0 6.0 0.00 0.00 0.00 86 1012.8
20260903084504 81 191 3.0 6.0 0.00 0.00 0.00 86 1012.9
20260903084004 81 195 3.0 6.0 0.00 0.00 0.00 86 1012.9
20260903083525 81 195 3.0 6.0 0.00 0.00 0.00 86 1012.9
20260903083003 81 188 3.0 6.0 0.00 0.00 0.00 86 1012.9
20260903082504 81 179 2.0 5.0 0.00 0.00 0.00 86 1012.9
20260903082004 81 183 3.0 6.0 0.00 0.00 0.00 86 1012.9
20260903081503 81 186 3.0 6.0 0.00 0.00 0.00 86 1012.9
20260903081004 81 178 4.0 8.0 0.00 0.00 0.00 86 1012.9
20260903080504 81 171 4.0 10.0 0.00 0.00 0.00 86 1012.8
20260903080004 81 180 4.0 10.0 0.00 0.00 0.00 86 1012.8
20260903075504 82 183 3.0 9.0 0.00 0.00 0.00 86 1012.8
20260903075003 82 172 3.0 7.0 0.00 0.00 0.00 86 1012.8
20260903074504 82 165 3.0 7.0 0.00 0.00 0.00 86 1012.9
20260903074004 82 163 3.0 8.0 0.00 0.00 0.00 86 1012.9
20260903073504 82 159 3.0 8.0 0.00 0.00 0.00 85 1013.0
20260903073003 82 155 3.0 7.0 0.00 0.00 0.00 85 1013.1
20260903072525 82 157 4.0 13.0 0.00 0.00 0.00 85 1013.0
20260903072025 82 163 4.0 13.0 0.00 0.00 0.00 85 1013.0
20260903071525 82 174 4.0 10.0 0.00 0.00 0.00 85 1012.9
20260903071025 82 169 5.0 10.0 0.00 0.00 0.00 85 1012.8
20260903070503 82 164 3.0 6.0 0.00 0.00 0.00 84 1012.9
20260903070004 82 168 2.0 5.0 0.00 0.00 0.00 84 1013.0
20260903065504 82 162 1.0 5.0 0.00 0.00 0.00 84 1013.1
20260903065004 82 168 2.0 6.0 0.00 0.00 0.00 84 1013.2
20260903064525 82 168 2.0 6.0 0.00 0.00 0.00 84 1013.3
20260903064004 82 177 2.0 6.0 0.00 0.00 0.00 84 1013.1
20260903063503 82 184 3.0 6.0 0.00 0.00 0.00 84 1013.1
20260903063003 82 178 3.0 6.0 0.00 0.00 0.00 84 1013.1
20260903062503 82 177 2.0 5.0 0.00 0.00 0.00 84 1013.0
20260903062004 82 182 3.0 6.0 0.00 0.00 0.00 84 1013.0
20260903061503 82 180 4.0 7.0 0.00 0.00 0.00 83 1013.0
20260903061003 82 172 4.0 7.0 0.00 0.00 0.00 83 1013.1
20260903060503 82 167 3.0 7.0 0.00 0.00 0.00 83 1013.1
20260903060003 82 157 3.0 7.0 0.00 0.00 0.00 82 1013.2
20260903055503 82 149 2.0 5.0 0.00 0.00 0.00 82 1013.3
20260903055024 82 154 3.0 7.0 0.00 0.00 0.00 82 1013.3
20260903054524 82 161 3.0 11.0 0.00 0.00 0.00 81 1013.4
20260903054003 82 163 3.0 11.0 0.00 0.00 0.00 81 1013.3
20260903053503 82 150 2.0 7.0 0.00 0.00 0.00 81 1013.3
20260903053025 82 148 3.0 9.0 0.00 0.00 0.00 80 1013.3
20260903052504 83 146 4.0 9.0 0.00 0.00 0.00 80 1013.3
20260903052025 83 140 3.0 8.0 0.00 0.00 0.00 80 1013.3
20260903051503 83 139 3.0 7.0 0.00 0.00 0.00 79 1013.2
20260903051004 83 151 4.0 9.0 0.00 0.00 0.00 79 1013.1
20260903050504 83 157 5.0 12.0 0.00 0.00 0.00 79 1013.1
20260903050004 83 154 5.0 12.0 0.00 0.00 0.00 79 1012.9
20260903045503 83 152 4.0 8.0 0.00 0.00 0.00 79 1012.8
20260903045003 83 155 4.0 9.0 0.00 0.00 0.00 78 1012.8
20260903044503 84 151 4.0 9.0 0.00 0.00 0.00 77 1012.7
20260903044004 84 144 4.0 9.0 0.00 0.00 0.00 77 1012.7
20260903043503 84 145 5.0 10.0 0.00 0.00 0.00 76 1012.7
20260903043025 84 149 5.0 11.0 0.00 0.00 0.00 75 1012.6
20260903042504 84 152 5.0 11.0 0.00 0.00 0.00 74 1012.5
20260903042004 85 158 6.0 14.0 0.00 0.00 0.00 73 1012.4
20260903041504 85 168 7.0 17.0 0.00 0.00 0.00 72 1012.5
20260903041003 85 166 7.0 17.0 0.00 0.00 0.00 71 1012.3
20260903040525 85 162 6.0 12.0 0.00 0.00 0.00 71 1012.2
20260903040004 86 162 6.0 12.0 0.00 0.00 0.00 69 1012.1
20260903035503 86 159 8.0 16.0 0.00 0.00 0.00 68 1012.1
20260903035003 86 161 7.0 16.0 0.00 0.00 0.00 67 1012.0
20260903034504 86 170 7.0 17.0 0.00 0.00 0.00 65 1012.0
20260903034004 87 170 8.0 17.0 0.00 0.00 0.00 64 1012.0
20260903033503 87 169 8.0 15.0 0.00 0.00 0.00 64 1012.1
20260903033003 87 171 8.0 20.0 0.00 0.00 0.00 62 1012.1
20260903032504 88 176 8.0 20.0 0.00 0.00 0.00 61 1011.9
20260903032003 88 176 7.0 15.0 0.00 0.00 0.00 59 1011.8
20260903031504 89 162 6.0 11.0 0.00 0.00 0.00 59 1011.8
20260903031004 89 157 6.0 11.0 0.00 0.00 0.00 59 1011.8
20260903030503 90 163 7.0 13.0 0.00 0.00 0.00 59 1011.6
20260903030004 90 163 8.0 13.0 0.00 0.00 0.00 59 1011.5
20260903025503 90 160 7.0 16.0 0.00 0.00 0.00 58 1011.4
20260903025004 91 159 7.0 16.0 0.00 0.00 0.00 58 1011.3
20260903024503 91 160 6.0 12.0 0.00 0.00 0.00 57 1011.2
20260903024003 91 156 6.0 11.0 0.00 0.00 0.00 57 1011.0
20260903023503 92 154 6.0 11.0 0.00 0.00 0.00 56 1010.9
20260903023025 92 157 5.0 10.0 0.00 0.00 0.00 53 1010.9
20260903022504 91 153 4.0 10.0 0.00 0.00 0.00 51 1010.9
20260903022004 91 151 2.0 5.0 0.00 0.00 0.00 49 1010.8
20260903021503 91 156 1.0 3.0 0.00 0.00 0.00 48 1010.7
20260903021003 93 157 0.0 2.0 0.00 0.00 0.00 46 1010.5
20260903020503 93 0 0.0 0.0 0.00 0.00 0.00 45 1010.3
20260903020003 94 0 0.0 0.0 0.00 0.00 0.00 44 1010.2
20260903015525 94 0 0.0 0.0 0.00 0.00 0.00 44 1010.1
20260903015004 94 157 0.0 1.0 0.00 0.00 0.00 43 1010.1
20260903014504 94 157 0.0 1.0 0.00 0.00 0.00 43 1010.0
20260903014003 95 157 0.0 1.0 0.00 0.00 0.00 42 1010.0
20260903013504 95 157 0.0 1.0 0.00 0.00 0.00 42 1010.1
20260903013003 95 157 0.0 1.0 0.00 0.00 0.00 41 1010.0
20260903012504 96 157 0.0 2.0 0.00 0.00 0.00 41 1010.0
20260903012005 96 157 0.0 2.0 0.00 0.00 0.00 41 1009.8
20260903011505 96 157 0.0 1.0 0.00 0.00 0.00 41 1009.8
20260903011005 97 157 0.0 2.0 0.00 0.00 0.00 40 1009.8
20260903010505 97 157 0.0 2.0 0.00 0.00 0.00 40 1009.9
20260903010005 98 157 0.0 2.0 0.00 0.00 0.00 39 1009.8
20260903005505 98 157 1.0 2.0 0.00 0.00 0.00 39 1009.8
20260903005026 98 160 2.0 4.0 0.00 0.00 0.00 38 1009.7
20260903004505 98 178 2.0 4.0 0.00 0.00 0.00 37 1009.9
20260903004005 99 198 3.0 6.0 0.00 0.00 0.00 37 1009.8
20260903003505 99 180 3.0 7.0 0.00 0.00 0.00 37 1009.8
20260903003005 99 172 3.0 7.0 0.00 0.00 0.00 37 1009.8
20260903002505 100 184 3.0 7.0 0.00 0.00 0.00 37 1009.8
20260903002005 100 194 3.0 7.0 0.00 0.00 0.00 36 1009.7
20260903001505 100 217 3.0 5.0 0.00 0.00 0.00 36 1009.7
20260903001005 101 239 3.0 6.0 0.00 0.00 0.00 36 1009.7
20260903000505 101 219 4.0 7.0 0.00 0.00 0.00 36 1009.7
20260903000005 101 202 3.0 7.0 0.00 0.00 0.00 36 1009.8
20260902235505 101 207 3.0 6.0 0.00 0.00 0.00 36 1009.8
20260902235005 101 210 3.0 6.0 0.00 0.00 0.00 36 1009.9
20260902234505 101 217 3.0 6.0 0.00 0.00 0.00 36 1009.8
20260902234005 100 221 3.0 5.0 0.00 0.00 0.00 36 1009.9
20260902233505 100 224 3.0 5.0 0.00 0.00 0.00 38 1009.8
20260902233005 100 224 3.0 7.0 0.00 0.00 0.00 38 1009.8
20260902232505 100 213 3.0 7.0 0.00 0.00 0.00 37 1009.8
20260902232026 100 202 3.0 7.0 0.00 0.00 0.00 37 1009.9
20260902231505 101 194 4.0 8.0 0.00 0.00 0.00 36 1009.9
20260902231005 101 196 5.0 10.0 0.00 0.00 0.00 35 1009.8
20260902230505 102 218 4.0 10.0 0.00 0.00 0.00 35 1009.9
20260902230005 102 208 4.0 10.0 0.00 0.00 0.00 35 1009.9
20260902225505 101 171 3.0 9.0 0.00 0.00 0.00 36 1009.9
20260902225005 101 187 3.0 9.0 0.00 0.00 0.00 36 1009.9
20260902224505 102 232 3.0 6.0 0.00 0.00 0.00 35 1009.9
20260902224005 102 257 4.0 10.0 0.00 0.00 0.00 34 1009.9
20260902223505 103 262 3.0 10.0 0.00 0.00 0.00 34 1009.9
20260902223005 103 254 2.0 7.0 0.00 0.00 0.00 35 1009.9
20260902222505 102 245 2.0 6.0 0.00 0.00 0.00 36 1009.9
20260902222005 101 224 2.0 10.0 0.00 0.00 0.00 36 1010.0
20260902221505 101 203 4.0 10.0 0.00 0.00 0.00 36 1010.0
20260902221026 102 201 4.0 11.0 0.00 0.00 0.00 35 1009.9
20260902220505 102 192 4.0 11.0 0.00 0.00 0.00 35 1010.1
20260902220026 102 156 3.0 7.0 0.00 0.00 0.00 35 1010.1
20260902215505 102 157 3.0 8.0 0.00 0.00 0.00 35 1010.1
20260902215005 102 196 3.0 8.0 0.00 0.00 0.00 35 1010.1
20260902214505 102 234 3.0 7.0 0.00 0.00 0.00 36 1010.2
20260902214026 102 233 3.0 7.0 0.00 0.00 0.00 35 1010.1
20260902213505 102 250 3.0 7.0 0.00 0.00 0.00 35 1010.3
20260902213005 102 257 4.0 7.0 0.00 0.00 0.00 35 1010.3
20260902212505 102 232 3.0 9.0 0.00 0.00 0.00 36 1010.3
20260902212026 102 204 3.0 9.0 0.00 0.00 0.00 36 1010.4
20260902211526 102 180 3.0 7.0 0.00 0.00 0.00 36 1010.4
20260902211026 102 147 3.0 7.0 0.00 0.00 0.00 36 1010.5
20260902210505 103 90 2.0 5.0 0.00 0.00 0.00 36 1010.5
20260902210005 103 38 1.0 5.0 0.00 0.00 0.00 37 1010.6
20260902205527 102 167 1.0 5.0 0.00 0.00 0.00 37 1010.8
20260902205005 101 199 2.0 6.0 0.00 0.00 0.00 38 1010.9
20260902204527 102 310 2.0 6.0 0.00 0.00 0.00 37 1011.0
20260902204005 101 64 2.0 5.0 0.00 0.00 0.00 38 1010.9
20260902203505 101 113 3.0 8.0 0.00 0.00 0.00 39 1011.0
20260902203005 101 125 3.0 8.0 0.00 0.00 0.00 39 1011.2
20260902202505 99 326 2.0 4.0 0.00 0.00 0.00 40 1011.2
20260902202004 99 299 2.0 7.0 0.00 0.00 0.00 40 1011.3
20260902201505 99 283 3.0 7.0 0.00 0.00 0.00 39 1011.3
20260902201026 100 267 2.0 6.0 0.00 0.00 0.00 38 1011.5